Regional Weather Roundup
Issued by NWS

Home | Current Version | Previous Version | Graphics & Text | Print | Product List | Glossary On
Versions: 1 2 3 4 5 6 7 8 9 10 11 12 13 14 15 16 17 18 19 20 21 22 23 24 25 26 27 28 29 30 31 32 33 34 35 36 37 38 39 40 41 42 43 44 45 46 47 48 49 50
780
ASUS43 KLOT 250308
RWRIL

ILLINOIS REGIONAL WEATHER ROUNDUP
NATIONAL WEATHER SERVICE CHICAGO/ROMEOVILLE IL
900 PM CST FRI NOV 24 2017

NOTE: "FAIR" INDICATES FEW OR NO CLOUDS BELOW 12,000 FEET WITH NO
SIGNIFICANT WEATHER AND/OR OBSTRUCTIONS TO VISIBILITY.

* THESE STATIONS ARE NOT UNDER NWS QUALITY CONTROL. THEY ALSO MAY NOT
  REPORT WEATHER SUCH AS PRECIPITATION OR FOG.

ILZ001-002-007-009-015-016-024-250400-
NORTHWEST ILLINOIS

CITY           SKY/WX    TMP DP  RH WIND       PRES   REMARKS
MOLINE         CLOUDY    57  41  55 W10       29.60R
STERLING*      MOCLDY    52  43  71 W12       29.58
SAVANNA*       CLOUDY    54  42  64 W7        29.58R
$$

ILZ003-004-008-010-011-017-018-250400-
NORTH CENTRAL ILLINOIS

CITY           SKY/WX    TMP DP  RH WIND       PRES   REMARKS
ROCKFORD       CLOUDY    55  41  59 NW10      29.56R
FREEPORT*      CLOUDY    52  42  68 W6        29.57R
ROCHELLE*      CLOUDY    45  40  82 W9        29.55R
DE KALB*       CLOUDY    53  42  64 W10       29.53R
PERU*          PTCLDY    53  40  61 W12       29.57R
$$

ILZ005-006-012>014-019>023-250400-
NORTHEAST ILLINOIS

CITY           SKY/WX    TMP DP  RH WIND       PRES   REMARKS
CHICAGO-OHARE  CLOUDY    54  40  59 SW9       29.50R
CHICAGO-MIDWAY CLOUDY    53  40  61 SW10      29.53R
AURORA         CLOUDY    52  41  66 SW10      29.53R
LANSING*       CLOUDY    50  40  66 SW13G20   29.56R
JOLIET*        CLOUDY    54  40  60 SW8       29.53S
WAUKEGAN       CLOUDY    55  41  59 W5        29.49R
DUPAGE AIRPORT CLOUDY    51  41  68 SW8       29.52R
KANKAKEE*      PTCLDY    50  37  60 SW16G24   29.58R
WHEELING       CLOUDY    54  42  64 W5        29.51R
MORRIS*        CLOUDY    53  40  62 SW9       29.53S
ROMEOVILLE*    CLOUDY   N/A N/A N/A SW12      29.53S
NORTHERLY ISL    N/A     53  37  54 S8          N/A
$$

LMZ740>746-250400-
SOUTHERN LAKE MICHIGAN

STATION/POSITION SKY/WX   TEMP    WIND        PRES    VSBY  WAVE
                          AIR SEA DIR/SP/G                  HT/PER
                          (F)     (DEG/KT/KT) (MB)    (MI)  (FT/S)
SOUTHERN BUOY              50 47  210/ 17/ 21  997.8R         5/ 6
HARRISON CRIB              54     210/ 25/ 29   N/A
BURNHAM HARBOR             53     220/  5/ 18   N/A
CALUMET HARBOR             53     200/ 13/ 21  999.5R
BURNS HARBOR               54     200/ 19/ 26 1000.7R
MICHIGAN CITY              53     180/ 21/ 24   N/A
$$

ILZ025>027-034>036-040-047-049-050-058-095>099-250400-
WEST-CENTRAL ILLINOIS

CITY           SKY/WX    TMP DP  RH WIND       PRES   REMARKS
QUINCY         PTCLDY    52  40  63 NW9       29.68R
GALESBURG*     CLEAR     52  42  68 W7        29.63S
MACOMB*        PTCLDY    49  40  73 NW10      29.67R
JACKSONVILLE*  MOCLDY    55  38  51 MISG      29.65R
PITTSFIELD*    CLOUDY    61  40  46 NW6       29.68R
$$

ILZ028>032-037-038-041>044-048-051>054-059>061-250400-
CENTRAL ILLINOIS

CITY           SKY/WX    TMP DP  RH WIND       PRES   REMARKS
PONTIAC        CLOUDY    53  40  62 SW16      29.58S
BLOOMINGTON    CLOUDY    52  38  58 SW15      29.61R
DECATUR        PTCLDY    53  38  56 SW17      29.62S
PEORIA         PTCLDY    59  42  53 NW8       29.62R
LACON*         PTCLDY    56  41  58 W8        29.59R
LINCOLN*       PTCLDY    54  40  61 SW3       29.63R
SPRINGFIELD    CLOUDY    56  40  55 W9        29.64R
TAYLORVILLE    CLOUDY    52  38  57 S14       29.64S
$$

ILZ033-039-045-046-055>057-062-063-250400-
EAST-CENTRAL ILLINOIS

CITY           SKY/WX    TMP DP  RH WIND       PRES   REMARKS
CHAMPAIGN      PTCLDY    51  37  58 S23G30    29.61S
DANVILLE*      PTCLDY    51  35  54 S21G28    29.60R
RANTOUL*       CLOUDY    53  39  59 SW15G21   29.60S
MATTOON        MOCLDY    52  36  54 S15       29.65S
PARIS*         CLOUDY    52  37  55 S23       29.66S
$$

ILZ079-100>102-250400-
SOUTHWEST ILLINOIS

CITY           SKY/WX    TMP DP  RH WIND       PRES   REMARKS
BELLEVILLE     CLOUDY    56  37  47 S10       29.68R
CAHOKIA*       PTCLDY    62  34  35 SW9       29.68R
SPARTA*        CLOUDY    55  37  50 S8        29.73S
$$

ILZ064>066-069>071-074>076-080>082-084>086-088>090-092>094-250400-
SOUTH-CENTRAL ILLINOIS

CITY           SKY/WX    TMP DP  RH WIND       PRES   REMARKS
CARBONDALE     PTCLDY    56  36  47 S20G28    29.76R
CAIRO*         CLOUDY    52  35  53 S9        29.81S
EFFINGHAM*     CLOUDY    55  38  52 S12G18    29.71R
MARION         PTCLDY    57  35  42 SW16G22   29.77R
MT. VERNON     PTCLDY    53  38  56 SW15      29.73R
CENTRALIA*     CLOUDY    55  40  56 S15       29.71R
SALEM*         MOCLDY    56  37  47 S18       29.70R
METROPOLIS*    MOCLDY    55  33  44 S10G18    29.82R
$$

ILZ067-068-072-073-078-083-087-091-250400-
SOUTHEAST ILLINOIS

CITY           SKY/WX    TMP DP  RH WIND       PRES   REMARKS
LAWRENCEVILLE  PTCLDY    51  35  54 S13       29.74R
FLORA*         PTCLDY    55  37  51 S14G22    29.72S
FAIRFIELD*     PTCLDY    52  36  54 S3        29.73R
HARRISBURG*    PTCLDY    55  35  47 SW13      29.78R
ROBINSON*      CLOUDY    51  35  53 S14       29.72F
CARMI*         PTCLDY    54  35  48 SW13      29.76R
$$

ABBREVIATIONS USED IN REMARKS
   TC - TEMPERATURE IN CELSIUS
  WCI - WIND CHILL INDEX
   HX - HEAT INDEX
  VSB - VISIBILITY
$$





USA.gov is the U.S. government's official web portal to all federal, state and local government web resources and services.